[[{"header":{"parameterUnit":"m.s-1","parameterCategory":1,"la1":30.2991,"la2":30.254,"lo1":-89.0895,"lo2":-89.0444,"dy":0.0017,"dx":0.0017,"nx":28,"ny":28,"refTime":"2024-05-17T03:00:00:Z","depth":0,"parameterNumber":2,"parameterNumberName":"U-component_of_WINDS"},"data":[0,0,0,0,0,0,0,0,0,0,0,0,0,0,0,0,0,0,0,0,0,0,0,0,0,0,0,0,0,0,0,0,0,0,0,0,0,0,0,0,0,0,0,0,0,0,0,0,0,0,0,0,0,0,0,0,0,0,-1.4184,-1.419,0,-1.4781,-1.4788,-1.4795,-1.5261,-1.5265,-1.527,-1.5274,-1.5905,-1.5918,-1.593,0,0,0,0,0,0,0,0,0,0,0,0,0,-1.347,-1.348,-1.4183,-1.4191,-1.4198,-1.478,-1.4788,-1.4797,-1.526,-1.5265,-1.5271,-1.5276,-1.5901,-1.5916,-1.5931,0,0,0,0,0,0,0,0,0,0,0,0,0,-1.3895,-1.3484,-1.4182,-1.4499,-1.4534,-1.4778,-1.4789,-1.4799,-1.5259,-1.5266,-1.5272,-1.5278,-1.5896,-1.5915,-1.5933,-1.5917,0,0,-1.5992,-1.6,0,0,0,0,0,0,0,0,-1.387,-1.392,-1.4445,-1.4478,-1.4517,-1.4953,-1.4769,-1.5175,-1.5257,-1.4984,-1.5274,-1.5282,-1.5584,-1.5629,-1.5728,-1.5947,-1.5974,-1.5993,-1.6005,-1.6013,-1.6018,0,0,0,0,0,0,0,-1.384,-1.3898,-1.4421,-1.4452,-1.4496,-1.462,-1.4688,-1.4848,-1.524,-1.5008,-1.5044,-1.5107,-1.5606,-1.5708,-1.5746,-1.5983,-1.5993,-1.601,-1.6021,-1.6029,-1.6232,-1.6226,0,0,0,0,0,0,-1.3758,-1.387,-1.4402,-1.4439,-1.4202,-1.4627,-1.4703,-1.4807,-1.524,-1.5312,-1.5101,-1.5126,-1.5672,-1.5723,-1.577,-1.5785,-1.6013,-1.6031,-1.6041,-1.6238,-1.6231,-1.6224,0,0,0,0,0,0,-1.3741,-1.3801,-1.4378,-1.4164,-1.4247,-1.4633,-1.4745,-1.4815,-1.4918,-1.5309,-1.5384,-1.5131,-1.568,-1.5743,-1.5878,-1.5813,-1.6039,-1.6056,-1.6245,-1.6236,-1.6227,-1.5809,0,0,0,0,0,0,-1.3718,-1.3792,-1.3783,-1.416,-1.4256,-1.4466,-1.4741,-1.4822,-1.4947,-1.4986,-1.5358,-1.5426,-1.569,-1.5847,-1.5897,-1.5843,-1.6071,-1.6253,-1.6241,-1.623,-1.583,-1.5786,-1.5749,0,0,0,0,0,-1.3691,-1.3644,-1.378,-1.3841,-1.4252,-1.4461,-1.4518,-1.4816,-1.4939,-1.4938,-1.5192,-1.5414,-1.5812,-1.5857,-1.5917,-1.5867,-1.6258,-1.6244,-1.6231,-1.5848,-1.5795,-1.575,0,0,0,0,0,0,-1.3254,-1.3699,-1.3854,-1.3926,-1.4151,-1.4539,-1.4546,-1.4749,-1.4949,-1.4978,-1.5348,-1.5428,-1.5525,-1.5713,-1.5754,-1.5881,-1.6065,-1.6062,-1.5753,-1.5706,-1.5666,-1.5619,-1.6087,0,0,0,0,0,-1.3164,-1.3289,-1.3676,-1.3702,-1.3807,-1.4155,-1.4258,-1.4469,-1.4721,-1.482,-1.5083,-1.5325,-1.5507,-1.5618,-1.5806,-1.5862,-1.5954,-1.5859,-1.5818,-1.5783,-1.5776,-1.5828,-1.5792,-1.618,-1.618,-1.618,0,0,-1.2983,-1.3242,-1.33,-1.3621,-1.3821,-1.395,-1.4233,-1.4357,-1.446,-1.4842,-1.4983,-1.5186,-1.5482,-1.5578,-1.5634,-1.5737,-1.5691,-1.5766,-1.5734,-1.5748,-1.581,-1.5773,-1.574,-1.617,-1.6172,-1.6174,0,0,-1.2719,-1.2925,-1.2972,-1.3166,-1.3464,-1.3697,-1.3708,-1.4067,-1.4214,-1.4362,-1.4653,-1.4787,-1.5088,-1.5288,-1.5429,-1.525,-1.5465,-1.5302,-1.509,-1.5135,-1.5105,-1.508,-1.5019,-1.4993,-1.5295,-1.5294,-1.5293,0,-1.2458,-1.2656,-1.2972,-1.3079,-1.3215,-1.3564,-1.3619,-1.3796,-1.4141,-1.4231,-1.4341,-1.4731,-1.4955,-1.5106,-1.5062,-1.5164,-1.5195,-1.5259,-1.5082,-1.5061,-1.5042,-1.4989,-1.4964,-1.5272,-1.5275,-1.5277,-1.5279,0,-1.2323,-1.2458,-1.2462,-1.278,-1.2919,-1.2999,-1.3335,-1.3439,-1.364,-1.3865,-1.4017,-1.4298,-1.4551,-1.4605,-1.4804,-1.4787,-1.4842,-1.5011,-1.5204,-1.4977,-1.4934,-1.4916,-1.5241,-1.5249,-1.5255,-1.5261,0,0,-1.1795,-1.229,-1.2286,-1.2438,-1.2795,-1.291,-1.3012,-1.3254,-1.3338,-1.3568,-1.3667,-1.3918,-1.4079,-1.4239,-1.4467,-1.4506,-1.4352,-1.4675,-1.4688,-1.4606,-1.4358,-1.4226,-1.4197,-1.4498,-1.4496,-1.4494,-1.4334,0,-1.1589,-1.1779,-1.2069,-1.2169,-1.2302,-1.2639,-1.273,-1.2963,-1.3178,-1.3331,-1.3574,-1.3746,-1.3943,-1.4043,-1.4098,-1.4357,-1.4307,-1.4374,-1.4601,-1.4605,-1.4513,-1.4174,-1.4035,-1.387,-1.4319,-1.4316,-1.4314,0,-1.1371,-1.1575,-1.1684,-1.2037,-1.2105,-1.2178,-1.2428,-1.2566,-1.2843,-1.2999,-1.3178,-1.3425,-1.3561,-1.3735,-1.3932,-1.397,-1.4083,-1.4226,-1.4228,-1.4259,-1.4443,-1.4198,-1.3824,-1.3798,-1.429,-1.4292,-1.4294,0,-1.0976,-1.1281,-1.1388,-1.1508,-1.192,-1.1965,-1.2141,-1.2424,-1.2554,-1.2776,-1.2866,-1.3102,-1.3232,-1.3414,-1.3723,-1.382,-1.3888,-1.4087,-1.4027,-1.4018,-1.4024,-1.4019,-1.3662,-1.4095,-1.4095,-1.4095,-1.4096,0,-1.0715,-1.0769,-1.1217,-1.1281,-1.1357,-1.1696,-1.1764,-1.1973,-1.2223,-1.2343,-1.2653,-1.276,-1.3161,-1.3319,-1.3563,-1.3691,-1.3748,-1.3883,-1.3947,-1.3855,-1.3837,-1.3932,-1.3952,-1.4089,-1.4091,-1.4092,-1.4093,0,-1.0285,-1.0586,-1.0725,-1.1104,-1.1202,-1.124,-1.1571,-1.1653,-1.1888,-1.2036,-1.2091,-1.2463,-1.2665,-1.2991,-1.3291,-1.3457,-1.3543,-1.365,-1.3445,-1.3484,-1.3406,-1.3409,-1.3098,-1.3077,-1.3517,-1.3513,-1.3509,0,-1.0097,-1.0147,-1.0531,-1.0629,-1.0792,-1.0947,-1.108,-1.142,-1.1548,-1.1871,-1.1915,-1.214,-1.2338,-1.2648,-1.2951,-1.3185,-1.3301,-1.3176,-1.3338,-1.3245,-1.3302,-1.3294,-1.3304,-1.3137,-1.313,-1.3125,-1.3121,0,-0.9734,-0.9882,-1.0056,-1.0284,-1.0432,-1.063,-1.0846,-1.0911,-1.1302,-1.1431,-1.1637,-1.179,-1.2096,-1.2319,-1.2595,-1.279,-1.3022,-1.3068,-1.3067,-1.2972,-1.2852,-1.2918,-1.3342,-1.3073,-1.3078,-1.3081,-1.3084,-1.3086,-0.9424,-0.9485,-0.9764,-0.9951,-1.0147,-1.0342,-1.0437,-1.0684,-1.0859,-1.1128,-1.1323,-1.1518,-1.1806,-1.22,-1.2382,-1.2547,-1.265,-1.2647,-1.2647,-1.2641,-1.2607,-1.2825,-1.26,-1.2602,-1.2603,-1.2605,-1.2606,0,-0.9078,-0.9275,-0.9442,-0.973,-0.9879,-1.0079,-1.033,-1.0444,-1.0608,-1.0852,-1.104,-1.1282,-1.1502,-1.1823,-1.2069,-1.214,-1.2254,-1.2194,-1.2192,-1.2235,-1.25,-1.2477,-1.2098,-1.2098,-1.2098,-1.2098,-1.2098,-1.2098,-0.8915,-0.903,-0.9211,-0.9431,-0.9633,-0.9819,-0.9945,-1.013,-1.0327,-1.0579,-1.076,-1.0966,-1.1246,-1.1516,-1.173,-1.182,-1.1898,-1.1804,-1.1927,-1.2169,-1.2215,-1.226,-1.224,-1.1817,-1.1817,-1.1649,-1.1647,-1.1646]},{"header":{"parameterUnit":"m.s-1","parameterCategory":1,"la1":30.2991,"la2":30.254,"lo1":-89.0895,"lo2":-89.0444,"dy":0.0017,"dx":0.0017,"nx":28,"ny":28,"refTime":"2024-05-17T03:00:00:Z","depth":0,"parameterNumber":3,"parameterNumberName":"V-component_of_WINDS"},"data":[0,0,0,0,0,0,0,0,0,0,0,0,0,0,0,0,0,0,0,0,0,0,0,0,0,0,0,0,0,0,0,0,0,0,0,0,0,0,0,0,0,0,0,0,0,0,0,0,0,0,0,0,0,0,0,0,0,0,4.0431,4.0435,0,4.0799,4.0803,4.0807,4.0734,4.0728,4.0721,4.0715,4.1101,4.1117,4.1133,0,0,0,0,0,0,0,0,0,0,0,0,0,3.9678,3.9692,4.0431,4.0435,4.044,4.0798,4.0803,4.0808,4.0736,4.0727,4.0719,4.0712,4.1095,4.1115,4.1135,0,0,0,0,0,0,0,0,0,0,0,0,0,4.0022,3.9697,4.043,4.0447,4.0452,4.0797,4.0804,4.081,4.0737,4.0727,4.0717,4.0708,4.1089,4.1113,4.1137,4.1492,0,0,4.1213,4.1224,0,0,0,0,0,0,0,0,4.0002,4.005,4.044,4.0446,4.0452,4.071,4.0679,4.1039,4.074,4.0629,4.0715,4.0703,4.098,4.1013,4.1104,4.151,4.1527,4.1215,4.123,4.1241,4.1248,0,0,0,0,0,0,0,3.9979,4.0033,4.0577,4.0445,4.0453,4.044,4.0478,4.0747,4.0857,4.0638,4.0634,4.0678,4.0981,4.108,4.1113,4.1532,4.1215,4.1237,4.1252,4.1262,4.2257,4.2268,0,0,0,0,0,0,3.9948,4.0014,4.0565,4.0588,4.0198,4.0462,4.0504,4.0638,4.0853,4.0876,4.0686,4.0673,4.1043,4.1084,4.1126,4.156,4.1241,4.1264,4.1278,4.2245,4.2259,4.2272,0,0,0,0,0,0,3.9932,3.9997,4.055,4.03,4.0369,4.0485,4.0637,4.065,4.0749,4.089,4.091,4.0766,4.1037,4.1091,4.1403,4.1572,4.1275,4.1298,4.2232,4.2249,4.2265,4.2428,0,0,0,0,0,0,3.991,3.9992,4.0124,4.0303,4.0383,4.0817,4.0647,4.0665,4.0791,4.0778,4.097,4.0993,4.1033,4.1366,4.1428,4.1601,4.1317,4.2217,4.2239,4.226,4.2408,4.2448,4.2483,0,0,0,0,0,3.9884,4.0156,4.0131,4.0198,4.055,4.0826,4.0872,4.091,4.0805,4.0942,4.1033,4.0987,4.1544,4.1399,4.1467,4.1651,4.2206,4.2233,4.2258,4.2391,4.244,4.2482,0,0,0,0,0,0,3.9994,4.0179,4.0154,4.0491,4.0644,4.0813,4.0986,4.0961,4.1148,4.1128,4.1171,4.1215,4.1534,4.1623,4.1458,4.201,4.1861,4.1902,4.1938,4.1987,4.2024,4.1996,4.1338,0,0,0,0,0,4.0058,4.0263,4.0415,4.0698,4.0776,4.0869,4.099,4.1007,4.1168,4.1233,4.1346,4.1508,4.172,4.1858,4.206,4.2421,4.2465,4.2582,4.262,4.265,4.2685,4.2889,4.2944,4.2357,4.2357,4.2356,0,0,4.0191,4.0318,4.0445,4.0724,4.0844,4.1061,4.0923,4.1156,4.132,4.1269,4.157,4.1661,4.1844,4.2183,4.2338,4.2268,4.2858,4.2683,4.2706,4.2725,4.2922,4.2977,4.3026,4.2375,4.2371,4.2369,0,0,4.0545,4.066,4.0911,4.1035,4.1218,4.1279,4.134,4.1516,4.1574,4.1876,4.1845,4.2042,4.2404,4.2538,4.2653,4.3067,4.3034,4.3132,4.3329,4.3528,4.3574,4.3615,4.3767,4.382,4.3167,4.3167,4.3168,0,4.0688,4.1009,4.1043,4.1282,4.1409,4.1373,4.1631,4.1751,4.1993,4.2083,4.2,4.2459,4.2579,4.2952,4.3054,4.3147,4.3222,4.311,4.3564,4.3606,4.3645,4.379,4.3847,4.3178,4.3177,4.3176,4.3175,0,4.1179,4.1404,4.1585,4.1818,4.1966,4.2213,4.2289,4.2436,4.2442,4.2514,4.2827,4.2971,4.3205,4.3295,4.3303,4.3672,4.3623,4.3553,4.3404,4.3711,4.3849,4.3904,4.3194,4.319,4.3187,4.3184,0,0,4.1609,4.1862,4.1928,4.2036,4.224,4.2416,4.2666,4.2892,4.3019,4.319,4.3403,4.3714,4.3652,4.3783,4.3807,4.3981,4.4306,4.389,4.3895,4.3965,4.4728,4.478,4.4843,4.4285,4.4296,4.4305,4.4713,0,4.1983,4.2418,4.246,4.2852,4.3063,4.3037,4.3255,4.3406,4.3482,4.3676,4.3761,4.3982,4.3881,4.3961,4.4132,4.423,4.446,4.4201,4.4489,4.4499,4.4444,4.4915,4.497,4.5348,4.4767,4.4776,4.4783,0,4.2477,4.2661,4.3074,4.3254,4.3344,4.3539,4.3754,4.3938,4.4113,4.4157,4.4307,4.431,4.4573,4.4416,4.4782,4.4605,4.4727,4.4794,4.481,4.4838,4.4659,4.4958,4.5469,4.5526,4.4867,4.486,4.4854,0,4.2752,4.3104,4.3398,4.3492,4.3708,4.3847,4.3944,4.4108,4.4244,4.4435,4.4524,4.4743,4.4864,4.5036,4.5101,4.498,4.5467,4.5313,4.5515,4.5514,4.5617,4.561,4.6157,4.5694,4.5693,4.5692,4.5691,0,4.3166,4.3421,4.3526,4.3706,4.3994,4.4043,4.4327,4.4418,4.4566,4.4769,4.4761,4.4952,4.5025,4.523,4.5283,4.5582,4.5636,4.5682,4.5694,4.5684,4.5678,4.5763,4.5739,4.5707,4.5704,4.5701,4.5699,0,4.3521,4.3601,4.392,4.4101,4.4153,4.4357,4.4513,4.4691,4.4766,4.5023,4.5087,4.5207,4.5448,4.553,4.5823,4.586,4.6208,4.6196,4.6148,4.6151,4.6348,4.6329,4.6969,4.7058,4.6536,4.6541,4.6545,0,4.378,4.3975,4.4178,4.4312,4.4414,4.463,4.477,4.4829,4.4975,4.5193,4.5347,4.5586,4.578,4.617,4.6286,4.6512,4.6507,4.6716,4.6541,4.6527,4.6513,4.6501,4.6523,4.6748,4.6754,4.6758,4.6762,0,4.4233,4.4264,4.4463,4.468,4.4846,4.502,4.5188,4.53,4.5385,4.5551,4.5797,4.5948,4.625,4.649,4.6722,4.6828,4.6813,4.6817,4.6876,4.6867,4.6832,4.6857,4.6239,4.6801,4.6797,4.6794,4.6792,4.679,4.4549,4.4724,4.4895,4.512,4.5253,4.5412,4.5589,4.5688,4.5893,4.6141,4.6165,4.6432,4.661,4.692,4.7038,4.7252,4.7194,4.7278,4.73,4.732,4.7337,4.6798,4.7295,4.7293,4.7293,4.7292,4.7291,0,4.5003,4.5113,4.5319,4.5555,4.5734,4.5702,4.5889,4.6042,4.6276,4.6442,4.6634,4.6922,4.7157,4.7293,4.753,4.7675,4.7675,4.7736,4.7726,4.7752,4.7374,4.73,4.7733,4.7733,4.7733,4.7733,4.7732,4.7732,4.526,4.5555,4.5608,4.5972,4.6082,4.6341,4.6452,4.6601,4.6734,4.7054,4.7248,4.7335,4.7493,4.7742,4.7958,4.7993,4.8082,4.815,4.8179,4.7823,4.7778,4.7734,4.7665,4.8168,4.8169,4.854,4.8543,4.8546]}]]